Year,Month,Day,Hour,Minute,Value (Times are PST for temperature in C)
2006,03,25,00,00,4.20
2006,03,25,00,01,4.20
2006,03,25,00,02,4.20
2006,03,25,00,03,4.20
2006,03,25,00,04,4.20
2006,03,25,00,05,4.20
2006,03,25,00,06,4.20
2006,03,25,00,07,4.20
2006,03,25,00,08,4.20
2006,03,25,00,09,4.20
2006,03,25,00,10,4.20
2006,03,25,00,11,4.20
2006,03,25,00,12,4.20
2006,03,25,00,13,4.20
2006,03,25,00,14,4.20
2006,03,25,00,15,4.20
2006,03,25,00,16,4.10
2006,03,25,00,17,4.10
2006,03,25,00,18,4.10
2006,03,25,00,19,4.10
2006,03,25,00,20,4.10
2006,03,25,00,21,4.10
2006,03,25,00,22,4.10
2006,03,25,00,23,4.10
2006,03,25,00,24,4.10
2006,03,25,00,25,4.10
2006,03,25,00,26,4.10
2006,03,25,00,27,4.10
2006,03,25,00,28,4.10
2006,03,25,00,29,4.00
2006,03,25,00,30,4.00
2006,03,25,00,31,4.00
2006,03,25,00,32,4.00
2006,03,25,00,33,4.00
2006,03,25,00,34,4.00
2006,03,25,00,35,4.00
2006,03,25,00,36,4.00
2006,03,25,00,37,4.00
2006,03,25,00,38,4.00
2006,03,25,00,39,3.90
2006,03,25,00,40,3.90
2006,03,25,00,41,3.90
2006,03,25,00,42,3.90
2006,03,25,00,43,3.90
2006,03,25,00,44,3.90
2006,03,25,00,45,3.90
2006,03,25,00,46,3.90
2006,03,25,00,47,3.90
2006,03,25,00,48,3.90
2006,03,25,00,49,3.80
2006,03,25,00,50,3.80
2006,03,25,00,51,3.80
2006,03,25,00,52,3.80
2006,03,25,00,53,3.80
2006,03,25,00,54,3.80
2006,03,25,00,55,3.80
2006,03,25,00,56,3.80
2006,03,25,00,57,3.70
2006,03,25,00,58,3.70
2006,03,25,00,59,3.60
2006,03,25,01,00,3.60
2006,03,25,01,01,3.50
2006,03,25,01,02,3.50
2006,03,25,01,03,3.50
2006,03,25,01,04,3.40
2006,03,25,01,05,3.40
2006,03,25,01,06,3.40
2006,03,25,01,07,3.30
2006,03,25,01,08,3.30
2006,03,25,01,09,3.30
2006,03,25,01,10,3.30
2006,03,25,01,11,3.20
2006,03,25,01,12,3.20
2006,03,25,01,13,3.20
2006,03,25,01,14,3.20
2006,03,25,01,15,3.20
2006,03,25,01,16,3.20
2006,03,25,01,17,3.20
2006,03,25,01,18,3.20
2006,03,25,01,19,3.20
2006,03,25,01,20,3.10
2006,03,25,01,21,3.10
2006,03,25,01,22,3.10
2006,03,25,01,23,3.10
2006,03,25,01,24,3.10
2006,03,25,01,25,3.10
2006,03,25,01,26,3.10
2006,03,25,01,27,3.10
2006,03,25,01,28,3.00
2006,03,25,01,29,3.00
2006,03,25,01,30,2.90
2006,03,25,01,31,2.90
2006,03,25,01,32,2.80
2006,03,25,01,33,2.80
2006,03,25,01,34,2.70
2006,03,25,01,35,2.70
2006,03,25,01,36,2.70
2006,03,25,01,37,2.70
2006,03,25,01,38,2.70
2006,03,25,01,39,2.70
2006,03,25,01,40,2.70
2006,03,25,01,41,2.70
2006,03,25,01,42,2.70
2006,03,25,01,43,2.70
2006,03,25,01,44,2.70
2006,03,25,01,45,2.70
2006,03,25,01,46,2.70
2006,03,25,01,47,2.70
2006,03,25,01,48,2.70
2006,03,25,01,49,2.70
2006,03,25,01,50,2.70
2006,03,25,01,51,2.70
2006,03,25,01,52,2.70
2006,03,25,01,53,2.70
2006,03,25,01,54,2.70
2006,03,25,01,55,2.60
2006,03,25,01,56,2.60
2006,03,25,01,57,2.60
2006,03,25,01,58,2.60
2006,03,25,01,59,2.60
2006,03,25,02,00,2.60
2006,03,25,02,01,2.60
2006,03,25,02,02,2.50
2006,03,25,02,03,2.50
2006,03,25,02,04,2.50
2006,03,25,02,05,2.50
2006,03,25,02,06,2.40
2006,03,25,02,07,2.40
2006,03,25,02,08,2.40
2006,03,25,02,09,2.40
2006,03,25,02,10,2.30
2006,03,25,02,11,2.30
2006,03,25,02,12,2.30
2006,03,25,02,13,2.30
2006,03,25,02,14,2.30
2006,03,25,02,15,2.30
2006,03,25,02,16,2.30
2006,03,25,02,17,2.30
2006,03,25,02,18,2.20
2006,03,25,02,19,2.20
2006,03,25,02,20,2.20
2006,03,25,02,21,2.20
2006,03,25,02,22,2.20
2006,03,25,02,23,2.20
2006,03,25,02,24,2.10
2006,03,25,02,25,2.10
2006,03,25,02,26,2.10
2006,03,25,02,27,2.10
2006,03,25,02,28,2.10
2006,03,25,02,29,2.10
2006,03,25,02,30,2.10
2006,03,25,02,31,2.10
2006,03,25,02,32,2.10
2006,03,25,02,33,2.10
2006,03,25,02,34,2.10
2006,03,25,02,35,2.10
2006,03,25,02,36,2.10
2006,03,25,02,37,2.00
2006,03,25,02,38,2.00
2006,03,25,02,39,2.00
2006,03,25,02,40,2.00
2006,03,25,02,41,2.00
2006,03,25,02,42,2.00
2006,03,25,02,43,1.90
2006,03,25,02,44,1.90
2006,03,25,02,45,1.90
2006,03,25,02,46,1.90
2006,03,25,02,47,1.90
2006,03,25,02,48,1.90
2006,03,25,02,49,1.90
2006,03,25,02,50,1.90
2006,03,25,02,51,1.90
2006,03,25,02,52,1.90
2006,03,25,02,53,1.90
2006,03,25,02,54,1.90
2006,03,25,02,55,1.90
2006,03,25,02,56,1.80
2006,03,25,02,57,1.80
2006,03,25,02,58,1.80
2006,03,25,02,59,1.70
2006,03,25,03,00,1.70
2006,03,25,03,01,1.70
2006,03,25,03,02,1.70
2006,03,25,03,03,1.70
2006,03,25,03,04,1.70
2006,03,25,03,05,1.70
2006,03,25,03,06,1.70
2006,03,25,03,07,1.70
2006,03,25,03,08,1.70
2006,03,25,03,09,1.70
2006,03,25,03,10,1.70
2006,03,25,03,11,1.60
2006,03,25,03,12,1.60
2006,03,25,03,13,1.60
2006,03,25,03,14,1.60
2006,03,25,03,15,1.50
2006,03,25,03,16,1.50
2006,03,25,03,17,1.50
2006,03,25,03,18,1.40
2006,03,25,03,19,1.40
2006,03,25,03,20,1.40
2006,03,25,03,21,1.40
2006,03,25,03,22,1.40
2006,03,25,03,23,1.40
2006,03,25,03,24,1.40
2006,03,25,03,25,1.40
2006,03,25,03,26,1.40
2006,03,25,03,27,1.40
2006,03,25,03,28,1.40
2006,03,25,03,29,1.40
2006,03,25,03,30,1.40
2006,03,25,03,31,1.40
2006,03,25,03,32,1.40
2006,03,25,03,33,1.40
2006,03,25,03,34,1.40
2006,03,25,03,35,1.40
2006,03,25,03,36,1.30
2006,03,25,03,37,1.30
2006,03,25,03,38,1.30
2006,03,25,03,39,1.30
2006,03,25,03,40,1.30
2006,03,25,03,41,1.30
2006,03,25,03,42,1.30
2006,03,25,03,43,1.30
2006,03,25,03,44,1.30
2006,03,25,03,45,1.30
2006,03,25,03,46,1.30
2006,03,25,03,47,1.30
2006,03,25,03,48,1.30
2006,03,25,03,49,1.30
2006,03,25,03,50,1.30
2006,03,25,03,51,1.30
2006,03,25,03,52,1.30
2006,03,25,03,53,1.30
2006,03,25,03,54,1.30
2006,03,25,03,55,1.30
2006,03,25,03,56,1.30
2006,03,25,03,57,1.30
2006,03,25,03,58,1.30
2006,03,25,03,59,1.20
2006,03,25,04,00,1.20
2006,03,25,04,01,1.20
2006,03,25,04,02,1.20
2006,03,25,04,03,1.20
2006,03,25,04,04,1.20
2006,03,25,04,05,1.20
2006,03,25,04,06,1.20
2006,03,25,04,07,1.20
2006,03,25,04,08,1.20
2006,03,25,04,09,1.10
2006,03,25,04,10,1.10
2006,03,25,04,11,1.10
2006,03,25,04,12,1.10
2006,03,25,04,13,1.10
2006,03,25,04,14,1.10
2006,03,25,04,15,1.10
2006,03,25,04,16,1.10
2006,03,25,04,17,1.00
2006,03,25,04,18,1.00
2006,03,25,04,19,1.00
2006,03,25,04,20,1.00
2006,03,25,04,21,0.90
2006,03,25,04,22,0.90
2006,03,25,04,23,0.90
2006,03,25,04,24,0.90
2006,03,25,04,25,0.90
2006,03,25,04,26,0.90
2006,03,25,04,27,0.90
2006,03,25,04,28,0.90
2006,03,25,04,29,0.90
2006,03,25,04,30,0.90
2006,03,25,04,31,0.90
2006,03,25,04,32,0.90
2006,03,25,04,33,0.90
2006,03,25,04,34,0.90
2006,03,25,04,35,0.90
2006,03,25,04,36,0.80
2006,03,25,04,37,0.80
2006,03,25,04,38,0.80
2006,03,25,04,39,0.80
2006,03,25,04,40,0.80
2006,03,25,04,41,0.80
2006,03,25,04,42,0.80
2006,03,25,04,43,0.80
2006,03,25,04,44,0.80
2006,03,25,04,45,0.80
2006,03,25,04,46,0.80
2006,03,25,04,47,0.80
2006,03,25,04,48,0.80
2006,03,25,04,49,0.80
2006,03,25,04,50,0.80
2006,03,25,04,51,0.80
2006,03,25,04,52,0.80
2006,03,25,04,53,0.80
2006,03,25,04,54,0.80
2006,03,25,04,55,0.70
2006,03,25,04,56,0.70
2006,03,25,04,57,0.70
2006,03,25,04,58,0.70
2006,03,25,04,59,0.70
2006,03,25,05,00,0.70
2006,03,25,05,01,0.70
2006,03,25,05,02,0.70
2006,03,25,05,03,0.70
2006,03,25,05,04,0.60
2006,03,25,05,05,0.60
2006,03,25,05,06,0.60
2006,03,25,05,07,0.60
2006,03,25,05,08,0.60
2006,03,25,05,09,0.60
2006,03,25,05,10,0.60
2006,03,25,05,11,0.60
2006,03,25,05,12,0.60
2006,03,25,05,13,0.60
2006,03,25,05,14,0.60
2006,03,25,05,15,0.60
2006,03,25,05,16,0.60
2006,03,25,05,17,0.60
2006,03,25,05,18,0.60
2006,03,25,05,19,0.60
2006,03,25,05,20,0.60
2006,03,25,05,21,0.60
2006,03,25,05,22,0.60
2006,03,25,05,23,0.70
2006,03,25,05,24,0.70
2006,03,25,05,25,0.70
2006,03,25,05,26,0.70
2006,03,25,05,27,0.70
2006,03,25,05,28,0.70
2006,03,25,05,29,0.70
2006,03,25,05,30,0.70
2006,03,25,05,31,0.80
2006,03,25,05,32,0.80
2006,03,25,05,33,0.70
2006,03,25,05,34,0.70
2006,03,25,05,35,0.70
2006,03,25,05,36,0.70
2006,03,25,05,37,0.70
2006,03,25,05,38,0.70
2006,03,25,05,39,0.70
2006,03,25,05,40,0.70
2006,03,25,05,41,0.70
2006,03,25,05,42,0.70
2006,03,25,05,43,0.70
2006,03,25,05,44,0.70
2006,03,25,05,45,0.70
2006,03,25,05,46,0.70
2006,03,25,05,47,0.70
2006,03,25,05,48,0.70
2006,03,25,05,49,0.70
2006,03,25,05,50,0.70
2006,03,25,05,51,0.70
2006,03,25,05,52,0.70
2006,03,25,05,53,0.70
2006,03,25,05,54,0.70
2006,03,25,05,55,0.70
2006,03,25,05,56,0.70
2006,03,25,05,57,0.70
2006,03,25,05,58,0.70
2006,03,25,05,59,0.70
2006,03,25,06,00,0.70
2006,03,25,06,01,0.70
2006,03,25,06,02,0.70
2006,03,25,06,03,0.70
2006,03,25,06,04,0.70
2006,03,25,06,05,0.70
2006,03,25,06,06,0.70
2006,03,25,06,07,0.70
2006,03,25,06,08,0.70
2006,03,25,06,09,0.70
2006,03,25,06,10,0.70
2006,03,25,06,11,0.70
2006,03,25,06,12,0.70
2006,03,25,06,13,0.70
2006,03,25,06,14,0.70
2006,03,25,06,15,0.70
2006,03,25,06,16,0.70
2006,03,25,06,17,0.70
2006,03,25,06,18,0.70
2006,03,25,06,19,0.70
2006,03,25,06,20,0.70
2006,03,25,06,21,0.70
2006,03,25,06,22,0.70
2006,03,25,06,23,0.70
2006,03,25,06,24,0.70
2006,03,25,06,25,0.70
2006,03,25,06,26,0.70
2006,03,25,06,27,0.70
2006,03,25,06,28,0.70
2006,03,25,06,29,0.70
2006,03,25,06,30,0.70
2006,03,25,06,31,0.70
2006,03,25,06,32,0.70
2006,03,25,06,33,0.70
2006,03,25,06,34,0.70
2006,03,25,06,35,0.70
2006,03,25,06,36,0.70
2006,03,25,06,37,0.70
2006,03,25,06,38,0.70
2006,03,25,06,39,0.70
2006,03,25,06,40,0.80
2006,03,25,06,41,0.80
2006,03,25,06,42,0.80
2006,03,25,06,43,0.80
2006,03,25,06,44,0.80
2006,03,25,06,45,0.80
2006,03,25,06,46,0.90
2006,03,25,06,47,0.90
2006,03,25,06,48,0.90
2006,03,25,06,49,0.90
2006,03,25,06,50,1.00
2006,03,25,06,51,1.00
2006,03,25,06,52,1.10
2006,03,25,06,53,1.10
2006,03,25,06,54,1.20
2006,03,25,06,55,1.20
2006,03,25,06,56,1.20
2006,03,25,06,57,1.30
2006,03,25,06,58,1.30
2006,03,25,06,59,1.30
2006,03,25,07,00,1.30
2006,03,25,07,01,1.30
2006,03,25,07,02,1.30
2006,03,25,07,03,1.30
2006,03,25,07,04,1.30
2006,03,25,07,05,1.30
2006,03,25,07,06,1.30
2006,03,25,07,07,1.30
2006,03,25,07,08,1.30
2006,03,25,07,09,1.40
2006,03,25,07,10,1.40
2006,03,25,07,11,1.40
2006,03,25,07,12,1.40
2006,03,25,07,13,1.40
2006,03,25,07,14,1.40
2006,03,25,07,15,1.50
2006,03,25,07,16,1.50
2006,03,25,07,17,1.50
2006,03,25,07,18,1.60
2006,03,25,07,19,1.60
2006,03,25,07,20,1.70
2006,03,25,07,21,1.70
2006,03,25,07,22,1.70
2006,03,25,07,23,1.80
2006,03,25,07,24,1.80
2006,03,25,07,25,1.80
2006,03,25,07,26,1.90
2006,03,25,07,27,1.90
2006,03,25,07,28,2.00
2006,03,25,07,29,2.00
2006,03,25,07,30,2.10
2006,03,25,07,31,2.20
2006,03,25,07,32,2.20
2006,03,25,07,33,2.30
2006,03,25,07,34,2.40
2006,03,25,07,35,2.40
2006,03,25,07,36,2.50
2006,03,25,07,37,2.60
2006,03,25,07,38,2.60
2006,03,25,07,39,2.70
2006,03,25,07,40,2.70
2006,03,25,07,41,2.80
2006,03,25,07,42,2.80
2006,03,25,07,43,2.90
2006,03,25,07,44,3.00
2006,03,25,07,45,3.00
2006,03,25,07,46,3.10
2006,03,25,07,47,3.10
2006,03,25,07,48,3.10
2006,03,25,07,49,3.10
2006,03,25,07,50,3.20
2006,03,25,07,51,3.30
2006,03,25,07,52,3.40
2006,03,25,07,53,3.40
2006,03,25,07,54,3.50
2006,03,25,07,55,3.60
2006,03,25,07,56,3.60
2006,03,25,07,57,3.70
2006,03,25,07,58,3.80
2006,03,25,07,59,3.80
2006,03,25,08,00,3.90
2006,03,25,08,01,3.90
2006,03,25,08,02,4.00
2006,03,25,08,03,4.10
2006,03,25,08,04,4.20
2006,03,25,08,05,4.20
2006,03,25,08,06,4.30
2006,03,25,08,07,4.20
2006,03,25,08,08,4.30
2006,03,25,08,09,4.30
2006,03,25,08,10,4.30
2006,03,25,08,11,4.30
2006,03,25,08,12,4.30
2006,03,25,08,13,4.30
2006,03,25,08,14,4.30
2006,03,25,08,15,4.30
2006,03,25,08,16,4.30
2006,03,25,08,17,4.20
2006,03,25,08,18,4.20
2006,03,25,08,19,4.20
2006,03,25,08,20,4.10
2006,03,25,08,21,4.10
2006,03,25,08,22,4.10
2006,03,25,08,23,4.10
2006,03,25,08,24,4.10
2006,03,25,08,25,4.10
2006,03,25,08,26,4.10
2006,03,25,08,27,4.20
2006,03,25,08,28,4.20
2006,03,25,08,29,4.20
2006,03,25,08,30,4.20
2006,03,25,08,31,4.30
2006,03,25,08,32,4.30
2006,03,25,08,33,4.30
2006,03,25,08,34,4.30
2006,03,25,08,35,4.30
2006,03,25,08,36,4.30
2006,03,25,08,37,4.40
2006,03,25,08,38,4.40
2006,03,25,08,39,4.50
2006,03,25,08,40,4.50
2006,03,25,08,41,4.50
2006,03,25,08,42,4.60
2006,03,25,08,43,4.70
2006,03,25,08,44,4.70
2006,03,25,08,45,4.80
2006,03,25,08,46,4.80
2006,03,25,08,47,4.80
2006,03,25,08,48,4.90
2006,03,25,08,49,4.90
2006,03,25,08,50,4.90
2006,03,25,08,51,5.00
2006,03,25,08,52,5.00
2006,03,25,08,53,5.10
2006,03,25,08,54,5.10
2006,03,25,08,55,5.20
2006,03,25,08,56,5.20
2006,03,25,08,57,5.30
2006,03,25,08,58,5.30
2006,03,25,08,59,5.40
2006,03,25,09,00,5.40
2006,03,25,09,01,5.50
2006,03,25,09,02,5.60
2006,03,25,09,03,5.60
2006,03,25,09,04,5.70
2006,03,25,09,05,5.80
2006,03,25,09,06,5.80
2006,03,25,09,07,5.90
2006,03,25,09,08,5.80
2006,03,25,09,09,5.80
2006,03,25,09,10,5.80
2006,03,25,09,11,5.80
2006,03,25,09,12,5.80
2006,03,25,09,13,5.90
2006,03,25,09,14,5.90
2006,03,25,09,15,5.90
2006,03,25,09,16,5.90
2006,03,25,09,17,5.90
2006,03,25,09,18,5.90
2006,03,25,09,19,5.90
2006,03,25,09,20,6.00
2006,03,25,09,21,6.00
2006,03,25,09,22,6.10
2006,03,25,09,23,6.10
2006,03,25,09,24,6.10
2006,03,25,09,25,6.10
2006,03,25,09,26,6.20
2006,03,25,09,27,6.20
2006,03,25,09,28,6.20
2006,03,25,09,29,6.20
2006,03,25,09,30,6.20
2006,03,25,09,31,6.30
2006,03,25,09,32,6.30
2006,03,25,09,33,6.30
2006,03,25,09,34,6.30
2006,03,25,09,35,6.30
2006,03,25,09,36,6.30
2006,03,25,09,37,6.40
2006,03,25,09,38,6.40
2006,03,25,09,39,6.50
2006,03,25,09,40,6.50
2006,03,25,09,41,6.50
2006,03,25,09,42,6.50
2006,03,25,09,43,6.60
2006,03,25,09,44,6.60
2006,03,25,09,45,6.70
2006,03,25,09,46,6.70
2006,03,25,09,47,6.70
2006,03,25,09,48,6.70
2006,03,25,09,49,6.70
2006,03,25,09,50,6.70
2006,03,25,09,51,6.70
2006,03,25,09,52,6.80
2006,03,25,09,53,6.80
2006,03,25,09,54,6.90
2006,03,25,09,55,6.90
2006,03,25,09,56,6.90
2006,03,25,09,57,7.00
2006,03,25,09,58,7.10
2006,03,25,09,59,7.10
2006,03,25,10,00,7.10
2006,03,25,10,01,7.10
2006,03,25,10,02,7.10
2006,03,25,10,03,7.10
2006,03,25,10,04,7.10
2006,03,25,10,05,7.10
2006,03,25,10,06,7.10
2006,03,25,10,07,7.10
2006,03,25,10,08,7.10
2006,03,25,10,09,7.10
2006,03,25,10,10,7.10
2006,03,25,10,11,7.10
2006,03,25,10,12,7.20
2006,03,25,10,13,7.20
2006,03,25,10,14,7.20
2006,03,25,10,15,7.20
2006,03,25,10,16,7.20
2006,03,25,10,17,7.30
2006,03,25,10,18,7.30
2006,03,25,10,19,7.40
2006,03,25,10,20,7.40
2006,03,25,10,21,7.40
2006,03,25,10,22,7.30
2006,03,25,10,23,7.30
2006,03,25,10,24,7.40
2006,03,25,10,25,7.40
2006,03,25,10,26,7.40
2006,03,25,10,27,7.50
2006,03,25,10,28,7.50
2006,03,25,10,29,7.50
2006,03,25,10,30,7.60
2006,03,25,10,31,7.50
2006,03,25,10,32,7.60
2006,03,25,10,33,7.60
2006,03,25,10,34,7.60
2006,03,25,10,35,7.60
2006,03,25,10,36,7.60
2006,03,25,10,37,7.60
2006,03,25,10,38,7.60
2006,03,25,10,39,7.60
2006,03,25,10,40,7.60
2006,03,25,10,41,7.60
2006,03,25,10,42,7.60
2006,03,25,10,43,7.70
2006,03,25,10,44,7.70
2006,03,25,10,45,7.70
2006,03,25,10,46,7.70
2006,03,25,10,47,7.70
2006,03,25,10,48,7.70
2006,03,25,10,49,7.70
2006,03,25,10,50,7.60
2006,03,25,10,51,7.60
2006,03,25,10,52,7.60
2006,03,25,10,53,7.50
2006,03,25,10,54,7.50
2006,03,25,10,55,7.50
2006,03,25,10,56,7.50
2006,03,25,10,57,7.50
2006,03,25,10,58,7.50
2006,03,25,10,59,7.50
2006,03,25,11,00,7.50
2006,03,25,11,01,7.50
2006,03,25,11,02,7.50
2006,03,25,11,03,7.40
2006,03,25,11,04,7.40
2006,03,25,11,05,7.40
2006,03,25,11,06,7.40
2006,03,25,11,07,7.40
2006,03,25,11,08,7.40
2006,03,25,11,09,7.50
2006,03,25,11,10,7.50
2006,03,25,11,11,7.60
2006,03,25,11,12,7.60
2006,03,25,11,13,7.60
2006,03,25,11,14,7.70
2006,03,25,11,15,7.70
2006,03,25,11,16,7.70
2006,03,25,11,17,7.70
2006,03,25,11,18,7.70
2006,03,25,11,19,7.80
2006,03,25,11,20,7.80
2006,03,25,11,21,7.80
2006,03,25,11,22,7.80
2006,03,25,11,23,7.80
2006,03,25,11,24,7.80
2006,03,25,11,25,7.80
2006,03,25,11,26,7.80
2006,03,25,11,27,7.80
2006,03,25,11,28,7.80
2006,03,25,11,29,7.80
2006,03,25,11,30,7.90
2006,03,25,11,31,7.90
2006,03,25,11,32,7.90
2006,03,25,11,33,7.90
2006,03,25,11,34,7.90
2006,03,25,11,35,7.90
2006,03,25,11,36,7.90
2006,03,25,11,37,8.00
2006,03,25,11,38,8.00
2006,03,25,11,39,8.00
2006,03,25,11,40,8.00
2006,03,25,11,41,8.10
2006,03,25,11,42,8.10
2006,03,25,11,43,8.10
2006,03,25,11,44,8.10
2006,03,25,11,45,8.10
2006,03,25,11,46,8.10
2006,03,25,11,47,8.10
2006,03,25,11,48,8.20
2006,03,25,11,49,8.20
2006,03,25,11,50,8.20
2006,03,25,11,51,8.30
2006,03,25,11,52,8.30
2006,03,25,11,53,8.30
2006,03,25,11,54,8.30
2006,03,25,11,55,8.30
2006,03,25,11,56,8.40
2006,03,25,11,57,8.40
2006,03,25,11,58,8.50
2006,03,25,11,59,8.50
2006,03,25,12,00,8.60
2006,03,25,12,01,8.60
2006,03,25,12,02,8.60
2006,03,25,12,03,8.70
2006,03,25,12,04,8.80
2006,03,25,12,05,8.80
2006,03,25,12,06,8.80
2006,03,25,12,07,8.80
2006,03,25,12,08,8.80
2006,03,25,12,09,8.80
2006,03,25,12,10,8.80
2006,03,25,12,11,8.80
2006,03,25,12,12,8.90
2006,03,25,12,13,8.90
2006,03,25,12,14,9.00
2006,03,25,12,15,9.00
2006,03,25,12,16,9.10
2006,03,25,12,17,9.10
2006,03,25,12,18,9.10
2006,03,25,12,19,9.20
2006,03,25,12,20,9.20
2006,03,25,12,21,9.20
2006,03,25,12,22,9.20
2006,03,25,12,23,9.20
2006,03,25,12,24,9.20
2006,03,25,12,25,9.10
2006,03,25,12,26,9.10
2006,03,25,12,27,9.10
2006,03,25,12,28,9.00
2006,03,25,12,29,9.00
2006,03,25,12,30,8.90
2006,03,25,12,31,8.90
2006,03,25,12,32,8.90
2006,03,25,12,33,8.90
2006,03,25,12,34,8.90
2006,03,25,12,35,8.80
2006,03,25,12,36,8.80
2006,03,25,12,37,8.80
2006,03,25,12,38,8.80
2006,03,25,12,39,8.80
2006,03,25,12,40,8.80
2006,03,25,12,41,8.90
2006,03,25,12,42,8.90
2006,03,25,12,43,9.00
2006,03,25,12,44,9.00
2006,03,25,12,45,9.10
2006,03,25,12,46,9.10
2006,03,25,12,47,9.20
2006,03,25,12,48,9.20
2006,03,25,12,49,9.20
2006,03,25,12,50,9.30
2006,03,25,12,51,9.30
2006,03,25,12,52,9.30
2006,03,25,12,53,9.30
2006,03,25,12,54,9.30
2006,03,25,12,55,9.30
2006,03,25,12,56,9.30
2006,03,25,12,57,9.30
2006,03,25,12,58,9.30
2006,03,25,12,59,9.40
2006,03,25,13,00,9.30
2006,03,25,13,01,9.30
2006,03,25,13,02,9.20
2006,03,25,13,03,9.20
2006,03,25,13,04,9.20
2006,03,25,13,05,9.30
2006,03,25,13,06,9.40
2006,03,25,13,07,9.50
2006,03,25,13,08,9.50
2006,03,25,13,09,9.60
2006,03,25,13,10,9.60
2006,03,25,13,11,9.60
2006,03,25,13,12,9.60
2006,03,25,13,13,9.70
2006,03,25,13,14,9.70
2006,03,25,13,15,9.70
2006,03,25,13,16,9.70
2006,03,25,13,17,9.70
2006,03,25,13,18,9.70
2006,03,25,13,19,9.70
2006,03,25,13,20,9.70
2006,03,25,13,21,9.60
2006,03,25,13,22,9.60
2006,03,25,13,23,9.60
2006,03,25,13,24,9.60
2006,03,25,13,25,9.60
2006,03,25,13,26,9.60
2006,03,25,13,27,9.70
2006,03,25,13,28,9.70
2006,03,25,13,29,9.70
2006,03,25,13,30,9.70
2006,03,25,13,31,9.80
2006,03,25,13,32,9.80
2006,03,25,13,33,9.80
2006,03,25,13,34,9.70
2006,03,25,13,35,9.70
2006,03,25,13,36,9.70
2006,03,25,13,37,9.70
2006,03,25,13,38,9.80
2006,03,25,13,39,9.80
2006,03,25,13,40,9.90
2006,03,25,13,41,10.00
2006,03,25,13,42,10.10
2006,03,25,13,43,10.10
2006,03,25,13,44,10.10
2006,03,25,13,45,10.00
2006,03,25,13,46,10.10
2006,03,25,13,47,10.00
2006,03,25,13,48,10.00
2006,03,25,13,49,9.90
2006,03,25,13,50,10.00
2006,03,25,13,51,10.10
2006,03,25,13,52,10.20
2006,03,25,13,53,10.30
2006,03,25,13,54,10.30
2006,03,25,13,55,10.30
2006,03,25,13,56,10.30
2006,03,25,13,57,10.30
2006,03,25,13,58,10.30
2006,03,25,13,59,10.20
2006,03,25,14,00,10.20
2006,03,25,14,01,10.20
2006,03,25,14,02,10.20
2006,03,25,14,03,10.20
2006,03,25,14,04,10.30
2006,03,25,14,05,10.30
2006,03,25,14,06,10.30
2006,03,25,14,07,10.30
2006,03,25,14,08,10.30
2006,03,25,14,09,10.20
2006,03,25,14,10,10.20
2006,03,25,14,11,10.20
2006,03,25,14,12,10.20
2006,03,25,14,13,10.20
2006,03,25,14,14,10.30
2006,03,25,14,15,10.40
2006,03,25,14,16,10.50
2006,03,25,14,17,10.50
2006,03,25,14,18,10.50
2006,03,25,14,19,10.60
2006,03,25,14,20,10.60
2006,03,25,14,21,10.70
2006,03,25,14,22,10.80
2006,03,25,14,23,10.80
2006,03,25,14,24,10.80
2006,03,25,14,25,10.80
2006,03,25,14,26,10.80
2006,03,25,14,27,10.80
2006,03,25,14,28,10.80
2006,03,25,14,29,10.80
2006,03,25,14,30,10.70
2006,03,25,14,31,10.60
2006,03,25,14,32,10.60
2006,03,25,14,33,10.70
2006,03,25,14,34,10.70
2006,03,25,14,35,10.70
2006,03,25,14,36,10.60
2006,03,25,14,37,10.70
2006,03,25,14,38,10.70
2006,03,25,14,39,10.70
2006,03,25,14,40,10.70
2006,03,25,14,41,10.70
2006,03,25,14,42,10.70
2006,03,25,14,43,10.60
2006,03,25,14,44,10.60
2006,03,25,14,45,10.60
2006,03,25,14,46,10.50
2006,03,25,14,47,10.50
2006,03,25,14,48,10.50
2006,03,25,14,49,10.50
2006,03,25,14,50,10.40
2006,03,25,14,51,10.40
2006,03,25,14,52,10.30
2006,03,25,14,53,10.30
2006,03,25,14,54,10.20
2006,03,25,14,55,10.10
2006,03,25,14,56,10.10
2006,03,25,14,57,10.00
2006,03,25,14,58,9.90
2006,03,25,14,59,9.90
2006,03,25,15,00,9.90
2006,03,25,15,01,9.80
2006,03,25,15,02,9.80
2006,03,25,15,03,9.80
2006,03,25,15,04,9.80
2006,03,25,15,05,9.80
2006,03,25,15,06,9.80
2006,03,25,15,07,9.80
2006,03,25,15,08,9.80
2006,03,25,15,09,9.80
2006,03,25,15,10,9.80
2006,03,25,15,11,9.80
2006,03,25,15,12,9.80
2006,03,25,15,13,9.80
2006,03,25,15,14,9.80
2006,03,25,15,15,9.80
2006,03,25,15,16,9.80
2006,03,25,15,17,9.80
2006,03,25,15,18,9.80
2006,03,25,15,19,9.80
2006,03,25,15,20,9.80
2006,03,25,15,21,9.80
2006,03,25,15,22,9.80
2006,03,25,15,23,9.80
2006,03,25,15,24,9.80
2006,03,25,15,25,9.80
2006,03,25,15,26,9.80
2006,03,25,15,27,9.80
2006,03,25,15,28,9.80
2006,03,25,15,29,9.90
2006,03,25,15,30,9.90
2006,03,25,15,31,9.90
2006,03,25,15,32,10.00
2006,03,25,15,33,10.00
2006,03,25,15,34,10.10
2006,03,25,15,35,10.20
2006,03,25,15,36,10.20
2006,03,25,15,37,10.30
2006,03,25,15,38,10.30
2006,03,25,15,39,10.30
2006,03,25,15,40,10.30
2006,03,25,15,41,10.30
2006,03,25,15,42,10.30
2006,03,25,15,43,10.30
2006,03,25,15,44,10.20
2006,03,25,15,45,10.20
2006,03,25,15,46,10.10
2006,03,25,15,47,10.00
2006,03,25,15,48,9.90
2006,03,25,15,49,9.90
2006,03,25,15,50,9.80
2006,03,25,15,51,9.80
2006,03,25,15,52,9.80
2006,03,25,15,53,9.80
2006,03,25,15,54,9.80
2006,03,25,15,55,9.80
2006,03,25,15,56,9.80
2006,03,25,15,57,9.80
2006,03,25,15,58,9.80
2006,03,25,15,59,9.90
2006,03,25,16,00,9.90
2006,03,25,16,01,9.90
2006,03,25,16,02,9.90
2006,03,25,16,03,9.90
2006,03,25,16,04,9.90
2006,03,25,16,05,9.90
2006,03,25,16,06,9.90
2006,03,25,16,07,9.90
2006,03,25,16,08,9.90
2006,03,25,16,09,9.90
2006,03,25,16,10,9.90
2006,03,25,16,11,9.90
2006,03,25,16,12,9.90
2006,03,25,16,13,9.90
2006,03,25,16,14,10.00
2006,03,25,16,15,10.00
2006,03,25,16,16,10.10
2006,03,25,16,17,10.10
2006,03,25,16,18,10.10
2006,03,25,16,19,10.20
2006,03,25,16,20,10.20
2006,03,25,16,21,10.20
2006,03,25,16,22,10.10
2006,03,25,16,23,10.10
2006,03,25,16,24,10.00
2006,03,25,16,25,10.00
2006,03,25,16,26,10.00
2006,03,25,16,27,9.90
2006,03,25,16,28,9.90
2006,03,25,16,29,9.90
2006,03,25,16,30,9.80
2006,03,25,16,31,9.80
2006,03,25,16,32,9.80
2006,03,25,16,33,9.80
2006,03,25,16,34,9.70
2006,03,25,16,35,9.70
2006,03,25,16,36,9.70
2006,03,25,16,37,9.60
2006,03,25,16,38,9.60
2006,03,25,16,39,9.60
2006,03,25,16,40,9.60
2006,03,25,16,41,9.50
2006,03,25,16,42,9.50
2006,03,25,16,43,9.50
2006,03,25,16,44,9.50
2006,03,25,16,45,9.50
2006,03,25,16,46,9.40
2006,03,25,16,47,9.40
2006,03,25,16,48,9.50
2006,03,25,16,49,9.40
2006,03,25,16,50,9.40
2006,03,25,16,51,9.40
2006,03,25,16,52,9.40
2006,03,25,16,53,9.40
2006,03,25,16,54,9.40
2006,03,25,16,55,9.30
2006,03,25,16,56,9.30
2006,03,25,16,57,9.30
2006,03,25,16,58,9.30
2006,03,25,16,59,9.20
2006,03,25,17,00,9.20
2006,03,25,17,01,9.20
2006,03,25,17,02,9.20
2006,03,25,17,03,9.20
2006,03,25,17,04,9.20
2006,03,25,17,05,9.10
2006,03,25,17,06,9.10
2006,03,25,17,07,9.10
2006,03,25,17,08,9.10
2006,03,25,17,09,9.10
2006,03,25,17,10,9.10
2006,03,25,17,11,9.10
2006,03,25,17,12,9.10
2006,03,25,17,13,9.10
2006,03,25,17,14,9.10
2006,03,25,17,15,9.10
2006,03,25,17,16,9.10
2006,03,25,17,17,9.10
2006,03,25,17,18,9.10
2006,03,25,17,19,9.10
2006,03,25,17,20,9.10
2006,03,25,17,21,9.10
2006,03,25,17,22,9.10
2006,03,25,17,23,9.10
2006,03,25,17,24,9.10
2006,03,25,17,25,9.20
2006,03,25,17,26,9.20
2006,03,25,17,27,9.20
2006,03,25,17,28,9.30
2006,03,25,17,29,9.30
2006,03,25,17,30,9.40
2006,03,25,17,31,9.50
2006,03,25,17,32,9.60
2006,03,25,17,33,9.60
2006,03,25,17,34,9.70
2006,03,25,17,35,9.80
2006,03,25,17,36,9.90
2006,03,25,17,37,9.90
2006,03,25,17,38,10.00
2006,03,25,17,39,10.00
2006,03,25,17,40,10.00
2006,03,25,17,41,9.90
2006,03,25,17,42,9.80
2006,03,25,17,43,9.80
2006,03,25,17,44,9.70
2006,03,25,17,45,9.60
2006,03,25,17,46,9.50
2006,03,25,17,47,9.40
2006,03,25,17,48,9.30
2006,03,25,17,49,9.30
2006,03,25,17,50,9.20
2006,03,25,17,51,9.10
2006,03,25,17,52,9.00
2006,03,25,17,53,8.90
2006,03,25,17,54,8.90
2006,03,25,17,55,8.80
2006,03,25,17,56,8.70
2006,03,25,17,57,8.60
2006,03,25,17,58,8.60
2006,03,25,17,59,8.50
2006,03,25,18,00,8.50
2006,03,25,18,01,8.40